Location: Newark
(58.9986°N, 38.5006°E)
Time: 09:12:25
(UTC+00:00)

Explorer 7 - Pass Details

Date: 22 April 2021
Orbit: 484 x 677 km, 50.3° (Epoch: 11 May)

Event Time Altitude Azimuth Distance (km) Brightness Sun altitude
Rises 19:08:20 0° 246° (WSW) 2,693 10.5 -13.4°
Reaches altitude 10° 19:10:46 10° 234° (SW) 1,836 9.5 -13.6°
Maximum altitude 19:14:15 26° 177° (S) 1,154 8.0 -13.8°
Enters shadow 19:15:20 23° 153° (SSE) 1,250 8.0 -13.9°
